Weather in Key West

United States     24°33′19″N   81°48′17″W
В апреле 2022 года жителям России запретили посещать сайт meteo.paraplan.net по решению Генеральной прокуратуры. Аудитория сайта уменьшилась в 10 раз. Владельцы сайта не видят смысла в поддержке погодного сервера в таких условиях. Сайт будет закрыт в октябре.
temp.,
°C
wind,
m/s
gust,
m/s
humid.,
%
clouds,
%
prec.,
mm/h
press.,
hPa
HPBL,
m
4 october, tue
tue423:00+27nnw3358100 0.0 10141058
02:00+26nw22565 0.0 1013872
05:00+26nw435990 0.0 1013787
08:00+26nnw446326 0.0 10141000
11:00+26nne44696 0.1 1015877
14:00+26ne557158 0.4 1014767
17:00+26nne44679 0.0 1013875
20:00+26nne33645 0.0 1014781
5 october, wed
wed523:00+26n33633 0.0 1015701
02:00+26n22640 0.0 1014677
05:00+26nnw22632 0.0 1013796
08:00+26ene11620 0.0 1014850
11:00+26e43670 0.0 1016857
14:00+26ne437231 0.3 1015612
17:00+26ne33685 0.1 1014560
20:00+26n22632 0.1 1015415
6 october, thu
thu623:00+27ne33620 0.0 1016850
02:00+26ne44670 0.0 1015861
05:00+26ne557596 0.1 1015684
08:00+26ene677737 0.6 1016633
11:00+26ene887596 1.3 1017851
14:00+27ene887219 2.1 10161024
17:00+27ene88748 0.6 1015983
20:00+27ene9107573 2.4 1016824
7 october, fri
fri723:00+27ene10107315 0.8 10171061
02:00+27ene101072100 0.8 10161206
05:00+27ene9107398 0.1 10161203
08:00+27ne9107697 0.3 10171005
11:00+27ne9107732 0.4 1018930
14:00+27ene9107224 0.6 10161101
17:00+27ene89720 0.0 1015909
20:00+27ene1011720 0.0 1016922
8 october, sat
sat823:00+27ene1011740 0.0 1017827
02:00+27ene11117949 0.1 1016945
05:00+26ne101181100 3.4 1015876
08:00+27ne10108172 6.7 1016923
11:00+27ne10108097 0.3 1017949
14:00+27ene99785 0.3 1016932
17:00+28ene9107674 0.1 1014817
20:00+27ene1112775 0.1 1015915